TimeCDT,TemperatureF,Dew PointF,Humidity,Sea Level PressureIn,VisibilityMPH,Wind Direction,Wind SpeedMPH,Gust SpeedMPH,PrecipitationIn,Events,Conditions,WindDirDegrees,DateUTC
12:52 AM,48.0,44.1,86,29.76,10.0,WNW,8.1,-,0.03,,Overcast,290,2012-10-15 05:52:00
1:14 AM,48.2,44.6,87,29.77,10.0,WNW,9.2,-,0.01,,Overcast,290,2012-10-15 06:14:00
1:52 AM,48.0,43.0,83,29.77,10.0,Variable,6.9,-,0.02,,Overcast,0,2012-10-15 06:52:00
2:52 AM,48.0,43.0,83,29.78,10.0,Variable,6.9,-,0.03,,Overcast,0,2012-10-15 07:52:00
3:52 AM,46.9,42.1,83,29.79,10.0,WNW,5.8,-,0.03,,Mostly Cloudy,300,2012-10-15 08:52:00
3:59 AM,46.4,42.8,87,29.79,10.0,West,4.6,-,N/A,,Mostly Cloudy,280,2012-10-15 08:59:00
4:19 AM,46.4,42.8,87,29.80,10.0,Variable,5.8,-,0.01,,Mostly Cloudy,0,2012-10-15 09:19:00
4:52 AM,46.0,41.0,83,29.80,10.0,WNW,3.5,-,0.03,,Mostly Cloudy,290,2012-10-15 09:52:00
5:52 AM,45.0,39.0,80,29.83,10.0,WNW,8.1,-,0.04,,Overcast,290,2012-10-15 10:52:00
6:52 AM,45.0,39.0,80,29.84,10.0,WNW,8.1,-,0.04,,Overcast,290,2012-10-15 11:52:00
7:52 AM,45.0,39.0,80,29.86,10.0,WNW,5.8,-,0.03,,Overcast,300,2012-10-15 12:52:00
8:52 AM,46.0,39.0,76,29.88,10.0,WNW,5.8,-,N/A,,Overcast,300,2012-10-15 13:52:00
9:52 AM,46.9,37.9,71,29.90,10.0,NW,6.9,-,N/A,,Overcast,310,2012-10-15 14:52:00
10:52 AM,50.0,39.0,66,29.92,10.0,WNW,11.5,17.3,N/A,,Mostly Cloudy,300,2012-10-15 15:52:00
11:52 AM,51.1,37.9,61,29.93,10.0,Variable,5.8,18.4,N/A,,Mostly Cloudy,0,2012-10-15 16:52:00
12:27 PM,51.8,37.4,58,29.93,10.0,NW,8.1,16.1,N/A,,Scattered Clouds,320,2012-10-15 17:27:00
1:52 PM,53.1,37.0,55,29.93,10.0,NW,8.1,-,N/A,,Partly Cloudy,320,2012-10-15 18:52:00
2:52 PM,52.0,39.9,63,29.93,10.0,NE,8.1,-,N/A,,Partly Cloudy,50,2012-10-15 19:52:00
3:52 PM,48.9,37.9,66,29.94,10.0,ENE,9.2,-,N/A,,Clear,70,2012-10-15 20:52:00
4:52 PM,48.9,37.9,66,29.95,10.0,East,4.6,-,N/A,,Clear,90,2012-10-15 21:52:00
5:52 PM,46.9,39.0,74,29.95,10.0,East,3.5,-,N/A,,Clear,90,2012-10-15 22:52:00
6:52 PM,43.0,39.0,86,29.95,10.0,Calm,Calm,-,N/A,,Clear,0,2012-10-15 23:52:00
7:52 PM,42.1,39.0,89,29.96,6.0,Calm,Calm,-,N/A,,Clear,0,2012-10-16 00:52:00
8:52 PM,39.9,39.0,97,29.97,8.0,Calm,Calm,-,N/A,,Clear,0,2012-10-16 01:52:00
9:52 PM,39.0,37.9,96,29.97,7.0,Calm,Calm,-,N/A,,Clear,0,2012-10-16 02:52:00
10:52 PM,37.9,37.9,100,29.96,10.0,Calm,Calm,-,N/A,,Clear,0,2012-10-16 03:52:00
11:52 PM,37.0,36.0,96,29.97,4.0,Calm,Calm,-,N/A,,Clear,0,2012-10-16 04:52:00